Home   Weather   Plauen   Past weeks

Flag for Germany Past Weather in Plauen, Saxony, Germany — Yesterday and Last 2 Weeks

Now
68 °F

Passing clouds.


Feels Like: 68 °F
Forecast: 49 / 77 °F
Wind: 8 mph from Northeast

Location: Hof Airport

Current Time: May 26, 2017 at 2:56:49 pm

Latest Report: May 26, 2017 at 2:20 pm


Visibility: N/A

Pressure: 30.18 "Hg

Humidity: 43%

Dew Point: 45 °F

Location of PlauenLocation

Past Weather in Plauen — Graph

°F

Plauen Temperature Yesterday

Maximum temperature yesterday: 64 °F (at 4:50 pm)
Minimum temperature yesterday: 48 °F (at 6:50 am)
Average temperature yesterday: 59 °F

High & Low Weather Summary for the Past Weeks

 TemperatureHumidityPressure
High81 °F (May 18, 4:50 pm)94% (May 15, 6:50 am)30.45 "Hg (May 15, 6:50 am)
Low43 °F (May 22, 5:20 am)32% (May 11, 2:20 pm)29.56 "Hg (May 11, 6:20 pm)
Average62 °F56%30.09 "Hg
* Reported May 11 1:20 pm — May 26 1:50 pm, Plauen. Weather by CustomWeather, © 2017

Note: Actual official high and low records may vary slightly from our data, if they occured in-between our weather recording intervals... More about our weather records

Advertising

Plauen Weather History for the Previous 24 Hours

Scroll right to see more
 ConditionsComfort  
Time TempWeatherWind HumidityBarometerVisibility
1:50 pm
Fri, May 26
66 °FPassing clouds.6 mph49%30.21 "HgN/A
1:20 pm66 °FPassing clouds.8 mph49%30.21 "HgN/A
12:50 pm66 °FPassing clouds.6 mph56%30.21 "HgN/A
12:20 pm64 °FPassing clouds.3 mph56%30.21 "HgN/A
11:50 am63 °FPassing clouds.3 mph59%30.21 "HgN/A
11:20 am61 °FPassing clouds.5 mph63%30.21 "HgN/A
10:50 am59 °FScattered clouds.6 mph68%30.21 "HgN/A
10:20 am57 °FScattered clouds.6 mph72%30.21 "HgN/A
9:50 am59 °FScattered clouds.5 mph72%30.21 "HgN/A
9:20 am55 °FScattered clouds.3 mph77%30.21 "HgN/A
8:50 am57 °FBroken clouds.5 mph77%30.21 "Hg6 mi
8:20 am54 °FPartly sunny.2 mph88%30.21 "Hg6 mi
7:50 am54 °FBroken clouds.6 mph82%30.21 "Hg6 mi
7:20 am52 °FBroken clouds.3 mph88%30.21 "Hg4 mi
6:50 am52 °FBroken clouds.5 mph88%30.21 "Hg4 mi
5:50 pm
Thu, May 25
63 °FPassing clouds.9 mph45%30.18 "HgN/A
5:20 pm64 °FPassing clouds.7 mph43%30.18 "HgN/A
4:50 pm64 °FPassing clouds.9 mph46%30.18 "HgN/A
4:20 pm63 °FPassing clouds.8 mph45%30.18 "HgN/A
3:50 pm63 °FPassing clouds.9 mph45%30.18 "HgN/A
3:20 pm61 °FScattered clouds.10 mph52%30.18 "HgN/A
2:50 pm63 °FPassing clouds.9 mph45%30.18 "HgN/A
2:20 pm59 °FPartly sunny.9 mph51%30.18 "HgN/A
Weather by CustomWeather, © 2017

See weather overviewHow to use our weather pages